DateTimeUTC,F1_A11,F1_S11,BsB_S11,BsG_S11,BsR_S11,BbsB_S11,BbsG_S11,BbsR_S11,BaB_A11,BaG_A11,BaR_A11,Tu_S11,T_S11,Uu_S11,U_S11,P_S11,T1_A11
2021-02-14T15:00:00Z,00000200,21000000,,,,,,,-000.31,-000.10,0000.30,17.4,23.8,01.2,00.8,0649.8,31.0
2021-02-14T15:01:00Z,00000200,21000000,,,,,,,-000.23,-000.29,-000.12,17.4,23.8,01.2,00.8,0649.8,31.0
2021-02-14T15:02:00Z,00000200,21000000,,,,,,,0000.32,-000.01,-000.04,17.3,23.8,01.2,00.8,0649.8,31.0
2021-02-14T15:03:00Z,00000200,61000000,,,,,,,0000.18,0000.09,0000.36,17.3,23.8,01.2,00.8,0649.8,31.0
2021-02-14T15:04:00Z,00000200,41000000,0000.76,0000.25,-000.04,-000.23,0000.28,0000.02,0000.37,0000.10,-000.12,17.4,23.6,01.2,00.8,0650.6,31.0
2021-02-14T15:05:00Z,00000200,01000000,-000.26,0000.07,0000.34,0000.16,0000.13,0000.26,0000.16,0000.47,0000.45,17.5,23.6,01.3,00.9,0650.6,31.0
2021-02-14T15:06:00Z,00000200,01000000,0000.82,0000.46,-000.01,-000.62,0000.09,0000.17,0000.04,0000.11,0000.07,17.6,23.6,01.2,00.8,0650.6,31.0
2021-02-14T15:07:00Z,00000200,01000000,0000.45,0000.39,0000.14,-000.45,0000.23,0000.25,0000.11,0000.18,-000.31,17.6,23.6,01.2,00.8,0650.7,31.1
2021-02-14T15:08:00Z,00000200,01000000,-000.00,0000.28,0000.08,0000.18,-000.06,-000.02,0000.01,0000.16,0000.45,17.7,23.6,01.2,00.8,0650.7,31.1
2021-02-14T15:09:00Z,00000200,01000000,0000.68,0000.71,0000.10,-000.28,0000.16,0000.12,0000.07,-000.14,0000.22,17.7,23.6,01.2,00.9,0650.7,31.1
2021-02-14T15:10:00Z,00000200,01000000,0000.38,0000.37,0000.07,-000.07,-000.11,0000.18,0000.23,0000.26,0000.37,17.7,23.6,01.3,00.9,0650.6,31.1
2021-02-14T15:11:00Z,00000200,01000000,0001.08,0000.51,0000.16,0000.34,-000.06,0000.07,0000.22,-000.06,-000.35,17.7,23.6,01.3,00.9,0650.7,31.0
2021-02-14T15:12:00Z,00000200,01000000,0000.04,0000.26,0000.24,-000.10,-000.18,0000.24,-000.16,0000.59,0000.09,17.6,23.6,01.2,00.8,0650.7,31.1
2021-02-14T15:13:00Z,00000200,01000000,0000.47,0000.40,0000.52,0000.29,-000.00,0000.48,0000.45,-000.13,0000.44,17.6,23.6,01.2,00.9,0650.7,31.1
2021-02-14T15:14:00Z,00000200,01000000,0000.45,0000.24,0000.01,0000.23,0000.33,0000.18,0000.39,0000.17,0000.07,17.6,23.6,01.3,00.9,0650.6,31.0
2021-02-14T15:15:00Z,00000200,01000000,-000.23,0000.58,-000.12,0000.03,-000.06,-000.23,-000.16,-000.16,0000.37,17.6,23.6,01.3,00.9,0650.5,31.1
2021-02-14T15:16:00Z,00000200,01000000,0000.02,0000.10,0000.11,-000.15,0000.08,0000.11,0000.18,0000.25,-000.16,17.6,23.6,01.3,00.9,0650.5,31.1
2021-02-14T15:17:00Z,00000200,01000000,0000.43,0000.29,0000.01,0000.12,-000.10,0000.13,0000.14,0000.07,0000.17,17.6,23.5,01.3,00.9,0650.6,31.0
2021-02-14T15:18:00Z,00000200,01000000,0000.52,0000.61,0000.43,-000.42,-000.18,0000.23,0000.17,-000.02,-000.10,17.5,23.5,01.3,00.9,0650.6,31.0
2021-02-14T15:19:00Z,00000200,01000000,0000.35,0000.71,0000.24,0000.20,0000.07,0000.16,0000.37,0000.53,0000.55,17.5,23.5,01.3,00.9,0650.7,31.0
2021-02-14T15:20:00Z,00000200,01000000,-000.01,0000.31,0000.03,-000.30,0000.15,0000.14,0000.34,0000.14,-000.19,17.5,23.5,01.3,00.9,0650.5,31.0
2021-02-14T15:21:00Z,00000200,01000000,0000.11,0000.14,0000.16,0000.37,0000.28,0000.23,0000.08,0000.45,0000.30,17.6,23.5,01.3,00.9,0650.6,31.0
2021-02-14T15:22:00Z,00000200,01000000,0000.37,0000.53,0000.09,0000.14,0000.07,0000.30,-000.14,0000.09,0000.26,17.7,23.6,01.3,00.9,0650.6,31.1
2021-02-14T15:23:00Z,00000200,01000000,0001.13,0000.30,0000.12,0000.32,0000.06,-000.04,0000.54,0000.29,0000.25,17.8,23.6,01.3,00.9,0650.6,31.1
2021-02-14T15:24:00Z,00000200,01000000,0000.83,0000.32,0000.19,-000.59,0000.02,0000.21,-000.12,-000.03,0000.12,17.9,23.7,01.3,00.9,0650.5,31.1
2021-02-14T15:25:00Z,00000200,01000000,0001.06,0000.38,0000.17,0000.39,0000.14,-000.20,0000.51,0000.91,0000.32,18.0,23.7,01.1,00.8,0650.5,31.1
2021-02-14T15:26:00Z,00000200,01000000,0000.87,0000.19,-000.06,-000.50,-000.18,0000.12,0000.23,-000.05,0000.13,18.1,23.8,01.3,00.9,0650.5,31.1
2021-02-14T15:27:00Z,00000200,01000000,0001.00,0000.31,0000.25,0000.31,-000.19,0000.35,-000.08,-000.17,0000.28,18.2,23.9,01.2,00.8,0650.6,31.2
2021-02-14T15:28:00Z,00000200,01000000,0000.89,-000.04,0000.21,0000.31,-000.02,-000.03,0000.45,0000.42,-000.10,18.3,23.9,01.1,00.8,0650.5,31.1
2021-02-14T15:29:00Z,00000200,01000000,0000.68,0000.16,0000.22,0000.18,0000.14,0000.20,0000.13,-000.10,0000.09,18.3,24.0,01.1,00.8,0650.5,31.1
2021-02-14T15:30:00Z,00000200,01000000,0000.88,0000.13,0000.36,0000.61,0000.04,0000.30,-000.21,0000.21,0000.20,18.4,24.0,01.1,00.8,0650.5,31.2
2021-02-14T15:31:00Z,00000200,01000000,0001.19,0000.28,0000.34,-000.40,0000.00,0000.28,-000.18,-000.01,-000.29,18.3,24.0,01.1,00.8,0650.6,31.1
2021-02-14T15:32:00Z,00000200,01000000,0000.14,0000.42,0000.61,0000.33,0000.09,0000.17,0000.21,-000.01,0000.27,18.3,24.0,01.1,00.8,0650.6,31.1
2021-02-14T15:33:00Z,00000200,01000000,0000.77,0000.48,0000.20,0000.02,0000.05,0000.24,0000.34,0000.02,0000.12,18.3,24.0,01.1,00.8,0650.5,31.1
2021-02-14T15:34:00Z,00000200,01000000,0000.62,0000.41,0000.23,-000.32,0000.25,0000.09,-000.46,0000.07,-000.22,18.3,24.0,01.0,00.7,0650.6,31.1
2021-02-14T15:35:00Z,00000200,01000000,0001.23,-000.03,0000.09,-000.27,-000.17,0000.29,0000.35,0000.22,-000.00,18.2,24.0,01.0,00.7,0650.5,31.1
2021-02-14T15:36:00Z,00000200,01000000,0001.12,0000.14,0000.20,-000.32,-000.17,0000.11,0000.16,0000.30,0000.08,18.2,24.0,01.0,00.7,0650.5,31.1
2021-02-14T15:37:00Z,00000200,01000000,0000.79,0000.44,0000.25,-000.23,0000.01,0000.12,0000.08,-000.37,-000.16,18.1,24.0,01.0,00.7,0650.5,31.1
2021-02-14T15:38:00Z,00000200,01000000,0000.77,0000.34,0000.40,0000.38,0000.02,-000.12,-000.10,-000.06,0000.16,18.1,23.9,01.0,00.7,0650.5,31.1
2021-02-14T15:39:00Z,00000200,01000000,0000.45,0000.29,0000.29,0000.18,0000.06,0000.48,-000.10,0000.02,0000.03,18.1,23.9,01.1,00.7,0650.6,31.1
2021-02-14T15:40:00Z,00000200,01000000,0000.27,0000.48,0000.28,0000.25,0000.01,0000.27,0000.03,0000.19,0000.13,18.0,23.9,00.9,00.7,0650.4,31.1
2021-02-14T15:41:00Z,00000200,01000000,-000.15,0000.04,0000.30,0000.05,0000.12,-000.01,0000.28,-000.19,-000.01,18.0,23.9,01.1,00.7,0650.5,31.1
2021-02-14T15:42:00Z,00000200,01000000,0000.23,0000.30,0000.16,0000.02,0000.21,0000.01,0000.23,0000.12,0000.23,18.0,23.9,01.0,00.7,0650.5,31.0
2021-02-14T15:43:00Z,00000200,01000000,0000.46,0000.34,0000.07,0000.05,0000.18,-000.07,-000.29,0000.31,-000.03,18.0,23.9,01.0,00.7,0650.5,31.1
2021-02-14T15:44:00Z,00000200,01000000,0000.21,0000.03,0000.32,-000.36,0000.02,0000.28,0000.32,-000.07,0000.19,17.9,23.9,01.1,00.7,0650.5,31.1
2021-02-14T15:45:00Z,00000200,01000000,0000.36,0000.27,0000.16,-000.40,0000.15,0000.09,0000.12,0000.05,-000.07,17.9,23.9,01.0,00.7,0650.4,31.1
2021-02-14T15:46:00Z,00000200,01000000,0000.61,0000.01,0000.17,-000.08,0000.07,-000.04,0000.03,-000.01,-000.23,17.9,23.8,01.0,00.7,0650.5,31.1
2021-02-14T15:47:00Z,00000200,01000000,0000.97,0000.17,0000.02,0000.39,0000.04,-000.16,0000.08,0000.24,0000.06,17.9,23.8,01.1,00.7,0650.3,31.1
2021-02-14T15:48:00Z,00000200,01000000,0000.25,0000.51,0000.32,0000.05,-000.06,-000.14,0000.26,-000.02,0000.17,17.8,23.8,01.0,00.7,0650.4,31.1
2021-02-14T15:49:00Z,00000200,01000000,0000.74,0000.33,0000.18,0000.10,-000.19,0000.15,-000.24,0000.23,0000.22,17.8,23.8,01.0,00.7,0650.2,31.1
2021-02-14T15:50:00Z,00000200,01000000,0001.02,0000.15,-000.09,-000.25,0000.04,0000.00,0000.16,-000.11,0000.17,17.8,23.8,01.1,00.7,0650.3,31.1
2021-02-14T15:51:00Z,00000200,01000000,-000.02,0000.45,0000.31,0000.16,0000.06,0000.12,0000.01,0000.31,-000.40,17.8,23.8,01.1,00.8,0650.3,31.1
2021-02-14T15:52:00Z,00000200,01000000,0000.77,0000.25,0000.39,-000.16,0000.14,0000.08,0000.26,-000.02,0000.19,17.7,23.7,01.1,00.7,0650.2,31.1
2021-02-14T15:53:00Z,00000200,01000000,0000.64,0000.20,0000.23,-000.89,-000.04,0000.37,-000.01,0000.05,0000.33,17.7,23.7,01.0,00.7,0650.2,31.1
2021-02-14T15:54:00Z,00000200,01000000,0000.68,0000.36,0000.08,0000.36,-000.01,0000.27,0000.14,0000.28,-000.08,17.7,23.7,01.1,00.7,0650.3,31.0
2021-02-14T15:55:00Z,00000200,01000000,0000.39,0000.17,0000.51,0000.18,0000.12,0000.40,0000.08,-000.24,0000.11,17.7,23.7,01.1,00.7,0650.2,31.1
2021-02-14T15:56:00Z,00000200,01000000,0000.76,0000.35,0000.21,0000.59,0000.13,0000.30,0000.22,0000.53,-000.03,17.7,23.7,01.1,00.8,0650.2,31.0
2021-02-14T15:57:00Z,00000200,41000000,,,,,,,-000.06,-000.38,0000.28,17.7,23.7,00.9,00.6,0650.3,31.0
2021-02-14T15:58:00Z,00000200,61000000,,,,,,,-000.15,-000.11,-000.47,17.4,23.8,00.9,00.6,0649.3,31.0
2021-02-14T15:59:00Z,00000200,21000000,,,,,,,0000.03,-000.15,0000.43,17.4,23.9,00.9,00.6,0649.3,31.0
